Theta_e
287 288 288 287 286 288 286 286 282 285 286 290 293 287 284 288 286 285 285 286 286 288 289 290 291 293 293 293 290 286 286 286 286 286 286 285 284 281 281 280 280 279 278 278
282 284 284 283 285 285 285 284 283 284 284 279 280 280 280 281 281 280 282 284 286 287 288 289 290 290 290 290 290 286 287 286 287 286 284 284 284 281 280 279 278 278 277 276
275 280 279 275 280 282 284 284 282 278 275 278 277 277 278 280 280 281 283 284 286 287 288 289 289 288 288 287 287 288 286 287 286 282 282 282 281 280 279 278 277 277 276 276
273 275 266 277 282 283 281 278 278 277 278 277 278 279 280 284 280 282 284 287 287 289 288 288 289 288 287 286 286 284 285 286 281 282 283 280 279 278 278 278 277 276 276 275
264 264 273 277 277 275 275 274 278 276 277 278 279 278 278 281 282 283 285 286 286 286 287 288 287 287 285 284 284 282 281 282 280 280 280 277 278 277 277 277 276 276 275 274
262 265 265 273 277 280 279 272 278 278 277 277 277 270 273 280 282 284 283 282 281 283 284 285 285 287 285 284 284 282 280 279 277 276 275 277 277 276 276 276 275 275 274 274
257 258 265 272 275 277 263 266 275 279 277 275 274 277 279 281 281 281 280 279 280 280 280 282 285 284 284 284 283 283 278 274 272 273 274 276 276 275 274 274 274 273 272 272
255 254 260 276 274 270 272 275 277 277 277 277 278 278 278 279 278 276 276 277 278 278 279 279 279 281 281 281 284 283 279 274 274 271 272 274 275 273 273 273 271 271 270 270
266 265 277 278 276 278 278 277 277 277 278 278 276 275 276 274 274 274 275 275 276 275 273 275 276 276 275 276 279 283 282 280 276 275 273 274 272 271 271 271 270 269 269 269
268 275 275 277 278 278 278 278 279 278 276 275 274 274 273 273 273 273 273 273 274 272 271 270 272 273 273 274 277 276 278 279 277 273 272 272 272 271 271 270 270 270 269 269
271 275 276 277 278 278 278 277 277 275 274 273 273 272 271 271 271 271 271 272 271 270 269 268 269 270 270 271 272 272 274 277 276 273 272 271 271 271 271 272 273 271 271 271
269 276 275 276 278 277 275 275 273 271 271 272 272 270 270 269 270 270 269 269 268 267 266 266 266 266 267 267 268 268 269 272 275 273 271 271 270 269 275 276 276 278 277 274
275 278 278 278 275 274 271 271 271 270 270 268 269 268 268 267 268 267 266 266 265 264 264 263 263 263 264 265 265 265 266 269 274 272 271 269 269 269 268 272 277 277 279 278
275 272 273 274 271 269 270 269 268 267 267 266 266 266 265 264 264 263 263 263 263 262 261 260 260 260 262 262 263 264 265 267 270 274 271 270 269 269 269 269 270 271 277 278
267 268 268 268 268 267 266 265 263 263 264 263 264 262 262 260 260 260 260 260 260 259 258 259 258 259 261 262 263 264 265 267 269 273 271 270 269 269 268 269 270 270 273 277
264 264 263 262 262 263 262 261 260 261 261 261 260 259 259 259 258 258 258 258 257 256 257 258 258 259 261 261 262 263 264 266 268 271 269 268 268 267 268 268 269 271 272 272
259 259 257 257 259 259 259 260 260 259 259 258 257 257 257 257 257 257 257 258 258 258 258 258 258 260 261 261 261 262 264 266 268 271 268 267 267 267 268 269 270 270 271 273
258 258 258 257 257 257 258 258 257 257 256 256 257 257 257 257 257 257 257 258 258 258 258 259 259 260 260 261 262 263 264 267 269 268 267 267 267 268 268 269 270 269 270 273
255 255 256 257 257 256 255 255 255 256 256 257 257 257 258 258 257 256 256 256 256 255 257 259 262 262 261 262 266 266 267 267 266 266 266 267 267 268 268 269 268 268 269 270
254 255 255 254 254 254 253 254 255 255 256 258 257 256 256 255 255 256 256 255 256 257 259 259 260 260 261 262 265 264 264 264 265 265 265 266 265 265 266 265 266 267 265 263
251 252 252 252 252 253 253 254 255 255 257 257 256 255 255 255 255 255 255 255 258 259 260 260 260 260 261 262 262 262 263 263 263 263 263 263 263 263 263 264 264 261 260 259
250 250 251 251 251 251 253 254 256 257 256 256 256 256 255 254 255 255 256 256 258 260 260 260 260 261 260 261 260 260 260 261 261 261 261 261 262 262 261 261 259 259 258 258
249 249 250 251 251 252 254 255 256 256 256 256 256 255 254 254 255 253 252 256 257 258 258 260 262 261 260 259 259 259 259 259 259 259 259 259 259 259 259 258 258 258 257 257
248 249 250 250 251 253 254 256 256 256 257 257 256 255 254 254 254 256 257 257 257 257 257 260 260 262 259 258 258 258 258 258 258 258 258 258 258 258 258 257 257 257 256 256
247 246 248 251 253 255 255 256 256 256 256 256 256 256 255 256 254 255 256 256 257 256 256 258 260 259 257 257 256 256 256 257 257 257 257 257 257 257 256 256 256 255 255 255
250 254 255 255 256 256 256 256 255 256 256 255 256 256 256 257 257 256 256 256 256 255 255 255 256 256 255 255 255 255 255 255 256 256 256 256 256 255 255 255 255 254 254 253
254 255 254 254 255 256 256 256 255 255 256 255 255 256 256 256 256 256 256 255 255 255 255 255 255 255 255 255 255 255 255 255 255 255 255 254 254 254 254 254 254 254 254 254
Wind_Speed
21 16 16 20 25 29 31 26 23 21 25 23 22 15 18 17 19 20 20 19 18 16 15 18 20 21 22 20 14 7 11 14 18 18 16 14 15 16 15 16 15 16 16 15
22 22 17 18 13 15 13 16 20 24 30 22 18 20 23 18 18 20 18 17 15 16 16 16 17 16 18 21 22 8 13 16 16 12 10 15 14 16 16 15 15 16 16 17
20 17 14 16 18 18 21 14 10 9 8 13 18 19 19 15 19 17 16 15 17 16 15 17 18 17 17 18 19 21 16 16 11 9 12 14 12 13 14 15 13 16 16 17
18 17 23 12 2 6 5 8 11 9 8 12 14 16 15 11 18 18 17 15 17 12 15 16 18 18 17 18 14 17 16 12 5 7 10 10 11 14 15 14 16 15 15 16
3 6 13 16 8 7 5 5 9 4 4 7 11 14 6 14 15 16 14 14 14 16 17 15 16 16 16 18 16 11 12 11 8 4 4 6 10 12 10 12 12 13 14 16
3 4 6 2 7 6 7 7 5 4 2 7 10 12 14 13 14 13 13 13 14 14 16 17 17 15 15 15 16 15 14 9 4 3 4 8 8 8 7 9 11 11 11 13
4 5 9 3 8 4 5 8 11 4 5 3 5 7 17 16 14 12 13 15 15 14 14 15 16 19 19 16 16 12 12 10 3 1 1 2 5 4 7 8 8 9 12 11
2 1 10 1 8 2 7 4 7 3 4 7 8 10 13 14 14 14 16 15 14 14 13 13 15 15 18 19 16 12 10 7 7 3 3 3 3 4 5 7 9 10 9 8
10 8 7 17 16 12 6 7 5 5 7 7 9 11 11 12 14 14 15 14 14 12 15 14 13 12 17 18 19 18 14 13 8 5 6 9 9 7 5 6 7 8 9 8
2 12 16 12 11 12 12 10 6 7 7 4 10 11 13 13 15 15 15 15 12 12 16 20 15 16 16 16 16 17 18 16 9 7 6 6 7 9 9 10 9 8 9 9
11 16 16 19 14 15 8 5 6 4 4 9 9 13 12 14 15 15 16 15 13 15 16 21 17 19 16 16 16 17 18 16 11 8 9 8 9 8 10 11 14 13 12 11
15 20 14 14 14 3 3 6 1 6 10 9 10 14 14 17 16 15 16 16 15 16 18 20 19 21 20 15 14 16 17 14 12 8 7 9 9 8 19 18 20 23 21 16
19 19 15 15 3 6 4 6 8 9 11 15 16 13 15 17 18 19 18 18 18 19 19 19 21 22 18 16 16 17 17 16 13 10 9 8 9 10 9 13 21 23 24 24
2 2 7 3 3 8 9 10 12 13 12 11 14 15 13 15 20 19 20 19 18 19 21 21 22 24 18 16 17 18 18 22 14 11 9 8 10 9 8 9 11 10 20 18
6 6 4 8 7 7 8 9 13 15 14 15 11 14 14 18 19 20 19 19 20 22 22 21 22 22 16 15 17 20 16 14 13 12 9 10 8 9 8 9 9 8 9 17
8 5 4 5 10 9 10 9 12 17 15 16 17 17 18 18 19 20 19 18 20 19 21 21 22 21 18 17 18 16 16 22 20 13 7 9 8 9 9 10 10 10 11 12
5 5 6 6 9 13 13 12 12 14 17 17 19 19 20 20 19 19 18 17 18 20 21 21 22 20 19 17 19 14 13 13 17 12 7 8 8 10 9 9 10 10 11 12
3 7 9 10 13 14 15 13 14 15 16 19 19 19 20 19 20 20 19 18 18 19 18 18 18 18 17 18 18 14 12 12 10 8 7 8 8 8 8 9 10 10 9 13
5 9 11 13 12 13 14 15 15 16 17 17 18 19 19 19 18 19 18 16 16 16 15 14 18 19 14 15 13 7 6 4 5 5 5 8 8 8 7 9 9 10 12 9
8 8 11 13 12 12 15 14 15 15 14 14 16 17 17 16 16 16 15 14 12 12 15 15 14 11 10 9 9 4 4 3 4 4 5 5 5 6 7 10 10 11 9 9
10 10 11 12 13 12 12 13 13 14 14 12 13 14 15 15 13 14 13 11 15 13 13 13 9 7 6 6 5 4 5 5 5 5 6 6 7 7 8 9 8 9 9 9
8 9 11 12 12 13 12 10 11 11 11 11 11 11 12 13 13 13 12 10 12 19 10 8 7 10 7 9 6 6 7 7 7 6 7 7 7 8 8 9 9 8 9 9
9 9 11 12 12 11 11 9 8 9 10 9 9 10 10 9 9 9 12 13 11 14 11 8 11 12 13 7 6 7 7 7 7 7 7 7 7 7 8 8 8 9 9 9
8 9 10 9 9 9 7 8 8 8 7 7 6 6 7 8 9 5 9 13 17 14 12 14 13 15 13 7 7 7 7 7 7 7 8 9 7 8 8 8 9 8 8 9
7 6 6 7 6 5 7 7 7 6 6 5 5 6 6 5 3 9 9 9 14 12 10 15 17 16 10 9 9 8 8 8 7 7 7 7 7 8 8 8 8 7 7 6
6 5 6 7 6 5 5 5 4 4 5 5 4 5 6 5 6 7 7 10 9 11 9 9 10 10 10 10 10 10 9 9 9 9 9 8 8 8 8 8 8 7 6 5
6 7 6 5 5 6 5 5 4 5 5 4 4 5 6 6 7 8 9 8 8 9 8 9 9 10 9 9 9 9 9 9 12 8 8 8 8 7 7 6 6 5 4 3
Wind_Direction
281 293 290 283 286 284 272 262 250 261 276 277 278 353 2 20 34 22 14 4 354 343 340 349 348 347 346 332 303 248 228 229 230 221 216 204 199 188 183 185 188 181 175 180
273 285 278 286 278 268 278 290 279 285 285 32 18 10 3 20 18 12 1 348 342 335 347 344 339 340 335 332 330 271 246 239 239 231 210 200 200 188 179 180 183 176 181 177
271 278 296 281 262 277 276 352 327 316 38 8 6 2 345 7 359 357 343 338 338 341 343 333 332 331 331 329 328 320 277 261 237 201 203 204 181 182 181 186 176 184 180 179
273 295 273 274 231 97 104 102 74 69 43 10 346 329 321 330 347 346 336 335 337 335 333 330 325 324 327 329 327 330 313 286 281 224 214 196 176 180 179 179 181 182 184 184
215 215 278 290 360 19 13 76 57 26 339 330 331 316 317 356 344 324 316 331 323 322 317 313 317 320 323 329 324 330 336 321 298 254 217 204 195 189 180 178 179 185 181 171
332 258 247 99 329 250 241 232 242 204 318 331 332 336 317 340 325 318 325 324 316 321 319 316 318 315 315 319 322 327 325 304 278 252 187 201 195 182 180 189 184 172 177 176
256 255 285 235 285 288 77 276 324 181 220 250 295 287 293 307 308 318 313 310 312 320 315 309 323 319 310 312 314 319 323 307 297 248 254 208 164 168 168 181 174 172 169 166
50 135 271 299 354 74 223 283 254 223 275 276 268 287 284 292 301 302 306 309 310 306 300 315 310 301 310 307 311 309 312 299 280 189 128 133 179 151 159 183 175 163 161 161
189 214 301 318 294 284 272 234 232 238 243 251 276 282 287 294 291 293 296 298 306 303 304 294 295 305 300 300 311 309 299 291 260 215 194 169 161 161 161 191 197 171 172 178
42 260 266 266 274 282 283 240 243 233 250 247 267 276 282 281 286 294 294 294 296 299 296 298 303 297 289 303 309 316 303 291 268 230 200 205 185 174 179 185 189 192 189 185
257 268 271 271 262 265 243 252 251 251 266 285 276 278 278 279 279 280 281 284 290 290 292 290 301 296 296 301 309 299 296 288 265 238 215 196 214 201 208 207 196 188 201 190
253 263 262 274 276 103 233 283 6 305 295 281 276 283 290 283 282 282 285 289 287 283 285 287 293 292 296 301 294 290 289 287 261 234 215 217 197 211 222 226 224 217 210 201
255 269 270 273 51 51 350 332 311 302 290 295 294 288 283 282 285 289 289 290 287 286 285 288 288 284 290 293 290 283 280 282 279 237 221 211 206 212 195 220 220 224 219 212
331 21 269 233 315 342 323 325 312 295 286 279 282 290 287 287 290 288 288 292 293 290 286 286 283 279 290 287 279 274 273 273 273 258 226 213 211 213 194 188 200 200 219 211
33 15 323 314 316 324 319 316 307 298 306 303 296 291 294 291 289 292 296 294 289 284 284 283 280 280 282 273 274 278 278 274 276 267 218 213 203 205 185 189 194 186 177 195
324 321 355 329 310 310 313 308 295 297 301 300 302 302 299 294 291 291 290 288 287 286 287 284 281 283 279 276 271 273 269 264 258 257 211 203 199 198 184 186 187 186 181 172
352 335 336 306 316 312 303 292 290 298 301 301 300 301 299 296 292 291 291 288 284 285 284 280 280 283 279 279 274 268 267 262 254 250 195 198 192 198 189 184 184 182 178 173
328 292 289 286 298 305 306 304 302 298 298 300 300 301 299 301 302 302 300 299 294 290 286 290 288 286 281 274 266 258 255 255 241 197 188 189 191 190 185 182 174 163 159 173
297 292 295 294 299 297 294 296 297 298 300 302 302 305 308 308 313 309 305 301 298 298 300 300 295 299 294 290 283 274 267 206 167 169 171 175 182 176 168 161 150 146 160 146
297 290 291 289 287 280 287 288 291 293 294 300 308 308 315 315 314 313 316 305 296 296 304 302 302 302 304 314 335 336 17 63 120 141 149 147 132 135 137 130 142 146 117 115
292 291 289 290 292 289 279 283 289 291 306 307 308 312 313 315 318 323 324 323 324 314 316 318 323 328 329 342 356 22 46 63 76 93 108 115 118 114 116 125 118 105 114 110
294 293 293 291 289 289 284 281 285 299 305 309 312 315 320 324 327 328 324 327 328 336 338 331 334 358 2 11 17 36 50 60 66 72 80 90 104 111 111 111 111 109 109 109
286 283 285 283 281 279 290 285 301 301 304 311 317 325 325 321 323 328 329 335 333 340 344 343 357 18 20 18 24 36 50 62 70 75 79 81 84 89 95 97 99 105 108 110
283 283 278 277 277 279 294 313 309 306 302 307 323 321 328 332 326 332 329 334 343 356 353 1 12 22 23 19 29 38 43 49 56 69 80 83 90 96 94 96 97 99 100 99
279 273 267 283 301 311 316 317 316 322 329 327 328 338 337 332 318 322 338 345 355 2 2 7 18 22 23 24 29 33 38 43 49 60 66 74 80 83 86 90 88 91 89 88
303 314 325 325 320 322 324 325 333 335 337 340 351 354 351 346 344 350 350 355 2 5 11 10 16 20 24 27 30 33 35 37 43 50 59 62 65 69 71 73 73 74 79 84
336 350 343 344 344 340 343 352 351 350 346 360 353 358 356 354 357 4 3 6 7 10 13 15 19 23 27 33 37 38 40 44 44 49 48 53 56 61 65 71 77 85 97 115